Madera, CA

8:21 PM PDT on September 25, 2017 (GMT -0700)
Madera Municipal

Weather History for KMAE - April, 2013

Change the Weather History Date:

Monday, April 8, 2013

  Actual Average Record
Temperature  
Mean Temperature 57 °F 58 °F  
Max Temperature 67 °F 71 °F 88 °F (2014)
Min Temperature 47 °F 44 °F 33 °F (2001)
Degree Days  
Heating Degree Days 8    
Month to date heating degree days 33  
Since 1 July heating degree days 2234  
Cooling Degree Days 0    
Month to date cooling degree days 0  
Year to date cooling degree days 2  
Growing Degree Days 6 (Base 50)    
Moisture  
Dew Point 39 °F    
Average Humidity 61    
Maximum Humidity 93    
Minimum Humidity 28    
Precipitation  
Precipitation 0.02 in 0.03 in 0.28 in (2016)
Month to date precipitation 0.57 0.27  
Year to date precipitation 3.46 6.65  
Since 1 July precipitation 8.16  
Snow  
Snow 0.00 in - - ()
Month to date snowfall 0.0  
Since 1 July snowfall 0.0  
Snow Depth 0.00 in    
Sea Level Pressure  
Sea Level Pressure 29.82 in    
Wind  
Wind Speed 21 mph (NW)    
Max Wind Speed 33 mph    
Max Gust Speed 44 mph    
Visibility 9 miles    
Events Rain    
T = Trace of Precipitation, MM = Missing Value Source: NWS Daily Summary

Daily Weather History Graph

Daily Weather History Graph

Search for Another Location

Airport or City:

Trip Planner

Search our weather history database for the weather conditions in past years. The results will help you decide how hot, cold, wet, or windy it might be!

Date:

Astronomy

Apr. 08, 2013 Rise Set
Actual Time 6:35 AM PDT 7:29 PM PDT
Civil Twilight 6:09 AM PDT 7:55 PM PDT
Nautical Twilight 5:37 AM PDT 8:27 PM PDT
Astronomical Twilight 5:05 AM PDT 8:59 PM PDT
Moon 5:26 AM PDT (4/8) 6:10 PM PDT (4/8)
Length of Visible Light 13h 46m
Length of Day
12h 53m
Waning Crescent, 3% of the Moon is Illuminated
Apr 8
Waning Crescent
Apr 10
New
Apr 18
First Quarter
Apr 25
Full
May 2
Last Quarter

Hourly Weather History & Observations

Time (PDT) Temp. Windchill Dew Point Humidity Pressure Visibility Wind Dir Wind Speed Gust Speed Precip Events Conditions
12:53 AM 50.0 °F - 46.0 °F 86% 29.84 in 10.0 mi North - - N/A   Clear
1:53 AM 50.0 °F - 46.0 °F 86% 29.80 in 10.0 mi North - - N/A   Partly Cloudy
2:53 AM 51.1 °F - 46.9 °F 86% 29.78 in 10.0 mi North - - N/A   Overcast
3:53 AM 50.0 °F - 39.0 °F 66% 29.75 in 10.0 mi North - - N/A   Clear
4:53 AM 50.0 °F - 37.9 °F 63% 29.77 in 10.0 mi North - - N/A   Mostly Cloudy
5:53 AM 46.9 °F - 43.0 °F 86% 29.78 in 10.0 mi NW 5.8 mph 29.9 mph 0.02 in Rain Light Rain
6:03 AM 46.4 °F 44.3 °F 42.8 °F 87% 29.78 in 10.0 mi Variable 4.6 mph - 0.00 in   Overcast
6:53 AM 46.9 °F - 44.1 °F 90% 29.79 in 10.0 mi West 3.5 mph - 0.00 in   Overcast
7:23 AM 48.2 °F - 44.6 °F 87% 29.81 in 10.0 mi WNW 9.2 mph - 0.00 in Rain Light Rain
7:53 AM 48.0 °F - 44.1 °F 86% 29.83 in 7.0 mi WNW 8.1 mph - 0.00 in   Overcast
8:06 AM 46.4 °F 42.4 °F 44.6 °F 93% 29.83 in 3.0 mi NW 8.1 mph - N/A   Overcast
8:10 AM 48.2 °F - 44.6 °F 87% 29.84 in 3.0 mi WNW 9.2 mph - N/A   Overcast
8:44 AM 48.2 °F - 44.6 °F 87% 29.84 in 5.0 mi NW 12.7 mph 20.7 mph N/A   Overcast
8:51 AM 48.2 °F - 46.4 °F 93% 29.84 in 10.0 mi NW 16.1 mph 23.0 mph N/A   Overcast
8:53 AM 48.9 °F - 46.0 °F 90% 29.84 in 10.0 mi NW 12.7 mph 23.0 mph N/A   Overcast
9:27 AM 51.8 °F - 42.8 °F 71% 29.84 in 10.0 mi NW 12.7 mph - N/A   Overcast
9:53 AM 53.1 °F - 41.0 °F 64% 29.84 in 10.0 mi NW 20.7 mph 27.6 mph N/A   Overcast
10:53 AM 54.0 °F - 37.9 °F 55% 29.85 in 10.0 mi NW 21.9 mph 27.6 mph N/A   Mostly Cloudy
11:53 AM 57.9 °F - 39.0 °F 49% 29.84 in 10.0 mi NW 19.6 mph 25.3 mph N/A   Scattered Clouds
12:53 PM 62.1 °F - 37.9 °F 41% 29.83 in 10.0 mi NNW 27.6 mph 36.8 mph N/A   Scattered Clouds
1:53 PM 64.0 °F - 37.0 °F 37% 29.82 in 10.0 mi NNW 27.6 mph 33.4 mph N/A   Scattered Clouds
2:53 PM 66.9 °F - 36.0 °F 32% 29.80 in 10.0 mi NW 25.3 mph 33.4 mph N/A   Partly Cloudy
3:53 PM 66.0 °F - 35.1 °F 32% 29.78 in 10.0 mi NW 26.5 mph 35.7 mph N/A   Clear
4:23 PM 66.2 °F - 33.8 °F 30% 29.77 in 10.0 mi NW 29.9 mph 43.7 mph N/A   Partly Cloudy
4:53 PM 66.0 °F - 33.1 °F 29% 29.78 in 10.0 mi NW 26.5 mph 36.8 mph N/A   Scattered Clouds
5:05 PM 66.2 °F - 33.8 °F 30% 29.79 in 10.0 mi NW 26.5 mph 40.3 mph N/A   Scattered Clouds
5:18 PM 66.2 °F - 33.8 °F 30% 29.78 in 10.0 mi NW 26.5 mph 39.1 mph N/A   Partly Cloudy
5:53 PM 66.0 °F - 32.0 °F 28% 29.79 in 10.0 mi NW 20.7 mph 35.7 mph N/A   Partly Cloudy
6:53 PM 63.0 °F - 30.9 °F 30% 29.80 in 10.0 mi North - - N/A   Partly Cloudy
7:30 PM 62.6 °F - 30.2 °F 30% 29.81 in 10.0 mi North - - N/A   Partly Cloudy
7:53 PM 62.1 °F - 30.0 °F 30% 29.81 in 10.0 mi NNW 23.0 mph 34.5 mph N/A   Partly Cloudy
8:53 PM 60.1 °F - 30.0 °F 32% 29.85 in 10.0 mi NNW 16.1 mph 31.1 mph N/A   Partly Cloudy
9:53 PM 57.9 °F - 30.9 °F 36% 29.88 in 10.0 mi North - - N/A   Clear
10:53 PM 55.0 °F - 33.1 °F 43% 29.89 in 10.0 mi North - - N/A   Clear
11:53 PM 50.0 °F - 35.1 °F 57% 29.90 in 10.0 mi North - - N/A   Clear